Zurück zum Katalog

AEROCUBE 8D

AktivWissenschaftPO
NORAD 41852·PAYLOAD·🇺🇸 United States

Gestartet Nov 11, 2016 von Vandenberg Space Force Base

Loading…

Nächste Überflüge (nächste 24 Stunden)

TLE

AktuellSource: Space-Track

Epoche: Sep 14, 2026, 11:02 UTC

1 41852U 16067E   26257.46005218  .00005767  00000-0  23100-3 0  9992
2 41852  98.0521 134.4301 0003457 159.7421 200.3953 15.25486117539673

Verfolge AEROCUBE 8D in Echtzeit mit AllMySat

Download on the App Store